Regional Weather Roundup
Issued by NWS Grand Forks, ND

Home | Current Version | Previous Version | Graphics & Text | Print | Product List | Glossary On
Versions: 1 2 3 4 5 6 7 8 9 10 11 12 13 14 15 16 17 18 19 20 21 22 23 24 25 26 27 28 29 30 31 32 33 34 35 36 37 38 39 40 41 42 43 44 45 46 47 48 49 50
000
ASUS43 KFGF 231331
RWRFGF
PRAIRIE TO PINES  WEATHER ROUNDUP
NATIONAL WEATHER SERVICE EASTERN NORTH DAKOTA/GRAND FORKS ND
700 AM CST THU FEB 23 2017

 **SATELLITE DATA USED TO AUGMENT SKY COVER AT AUTOMATED STATIONS**
 *****  WEATHER ACROSS EASTERN NORTH DAKOTA  *****

CITY           SKY/WX    TMP DP  RH WIND       PRES   REMARKS
GRAND FORKS    CLOUDY    29  20  69 N5        30.05S WCI  24
GRAND FRKS AFB CLOUDY    28  22  81 N5        30.05R WCI  22
DEVILS LAKE    CLOUDY    26  24  92 CALM      30.02F
FARGO          CLOUDY    30  24  78 N12       30.02S WCI  20
WAHPETON ARPT  FAIR      28  25  86 N12       29.99S WCI  18
$$

 ***** WEATHER ACROSS CENTRAL AND WESTERN NORTH DAKOTA  *****

CITY           SKY/WX    TMP DP  RH WIND       PRES   REMARKS
BISMARCK       CLOUDY    28  25  88 CALM      30.01S
MINOT          CLOUDY    28  24  85 N17       30.02S WCI  16
JAMESTOWN      CLOUDY    26  24  92 N8        29.99F WCI  18
MINOT AFB      FLURRIES  25  21  86 NE18      30.03R WCI  11
GARRISON         N/A     28  26  92 NW9       30.00S WCI  19
WILLISTON      CLOUDY    29  26  89 SW6       30.02S WCI  23
DICKINSON      CLOUDY    25  23  92 N6        29.95F FOG     WCI  18
HETTINGER      CLOUDY    26  23  88 NE8       29.95S WCI  18
$$

 *****  OTHER AIRPORT OBSERVATIONS IN OUR AREA  *****

CITY           SKY/WX    TMP DP  RH WIND       PRES   REMARKS
WALHALLA       NOT AVBL
GRAFTON AIRPOR CLOUDY    27  23  86 N12       30.08S WCI  16
VALLEY CITY AR CLOUDY    27  27 100 NE7       30.02S WCI  19
CANDO          NOT AVBL
CAVALIER APRT    N/A     25  18  74 N12       30.09R WCI  14
GWINNER        CLOUDY    30  28  93 N13       30.00S WCI  20
SHEYENNE NWR     N/A     25  22  89 N3        29.95S
ROLLA          CLOUDY    23  23 100 N17       30.03S WCI   9
 ***** THE ABOVE OBSERVATIONS ARE NON NWS ARE NOT QUALITY
       CONTROLLED AND MAY MIS-REPORT RAIN FOR SNOW...
$$

  *****  WEATHER ACROSS NORTHERN MINNESOTA  *****

CITY           SKY/WX    TMP DP  RH WIND       PRES   REMARKS
FLAG ISLAND    CLOUDY    19  10  68 N15       30.01R WCI   5
WARROAD        CLOUDY    21  14  73 NW10      30.04R WCI  10
ROSEAU         CLOUDY    23  16  74 N8        30.04R WCI  14
HALLOCK        CLOUDY    27  21  80 N7        30.07R WCI  19
THF RVR FALLS  CLOUDY    25  19  80 NW8       30.04F WCI  16
BAUDETTE       CLOUDY    20  11  68 NW13      29.99R WCI   7
WASKISH        CLOUDY    21  16  79 N6        30.01R WCI  14
CROOKSTON      CLOUDY    27  21  80 N7        30.05F WCI  19
STEPHEN NDAWN    N/A     27  21  80 N6          N/A  WCI  20
GREENBUSH NDAW   N/A     23  19  86 NW3         N/A
$$
  *****  WEATHER ACROSS CENTRAL AND WEST MINNESOTA  *****

CITY           SKY/WX    TMP DP  RH WIND       PRES   REMARKS
FOSSTON        CLOUDY    23  19  86 N13       30.02R WCI  11
BEMIDJI        CLOUDY    23  18  80 N10       29.98R WCI  12
PARK RAPIDS    CLOUDY    24  16  71 N12       29.95F WCI  13
ELBOW LAKE     FAIR      26  23  87 N13       29.96R WCI  15
WADENA         FAIR      23  21  93 N14       29.94S WCI  11
DETROIT LAKES  FAIR      25  23  93 N6        29.99R WCI  18
MOORHEAD       CLOUDY    28  21  74 N13G18    30.02S WCI  18
FERGUS FALLS   FAIR      27  21  80 N13       30.01R WCI  16
MORRIS MN      FAIR      28  27  93 N13       29.94R WCI  18
STAPLES        CLOUDY    23  21  93 N10       29.94S WCI  12
$$
  *****  WEATHER ELSEWHERE ACROSS MINNESOTA  *****

CITY           SKY/WX    TMP DP  RH WIND       PRES   REMARKS
DULUTH         CLOUDY    26  23  88 NW7       29.90R WCI  18
INTRNTL FALLS  CLOUDY    24  15  68 NW7       29.95R WCI  16
ELY            CLOUDY    25  19  80 W7        29.90R WCI  17
CLOQUET        CLOUDY    25  21  86 NW10G18   29.92R WCI  15
WHEATON        FAIR      27  25  93 N9        30.00R WCI  17
BRAINERD       CLOUDY    23  20  88 N13       29.94S WCI  11
HIBBING        CLOUDY    22  19  89 N8        29.94R WCI  12
ALEXANDRIA     FAIR      26  22  84 N13       29.92S WCI  15
SAINT CLOUD    FAIR      27  24  89 N9        29.92R WCI  18
MINNEAPOLIS    CLOUDY    32  25  75 N15G25    29.89F WCI  22
$$

  *****  WEATHER ACROSS SOUTH DAKOTA  *****

CITY           SKY/WX    TMP DP  RH WIND       PRES   REMARKS
SIOUX FALLS    CLOUDY    32  27  81 NE15      29.88R WCI  22
BROOKINGS      FAIR      29  24  82 NE13      29.87F WCI  19
WATERTOWN      FAIR      27  22  81 NE14      29.91R WCI  16
HURON          FAIR      28  25  88 NE13      29.92S WCI  17
SISSETON         N/A     26  24  92 N10       29.97R WCI  16
ABERDEEN       FAIR      26  22  84 N9        29.96F WCI  17
MITCHELL       FAIR      29  27  92 N6        29.94R WCI  23
PIERRE         FAIR      28  23  81 NE12      29.92F WCI  18
MOBRIDGE       MOCLDY    27  23  85 N6        29.95R WCI  20
RAPID CITY     CLOUDY    27  25  92 NE13      29.86R FOG     WCI  16
$$

  *****  SOME WEATHER IN NEARBY STATES *****

CITY           SKY/WX    TMP DP  RH WIND       PRES   REMARKS
GLASGOW MT     CLOUDY    26  24  92 S3        30.02R FOG
GREAT FALLS MT CLOUDY    25  22  88 NE10      29.95R WCI  15
CHEYENNE WY    LGT SNOW  27  25  92 E18       29.58F FOG     WCI  14
SCOTTSBLUFF NE LGT SNOW  28  25  88 E17       29.70F VSB 3/4 WCI  16
OMAHA NE       CLOUDY    37  32  82 NE12      29.82R
DES MOINES IA  CLOUDY    39  36  89 NE12      29.80S
DAVENPORT IA   FAIR      40  37  89 N8        29.76F
CHICAGO IL     FAIR      47  42  83 N6        29.73R
EAU CLAIRE WI  CLOUDY    36  29  75 NE6       29.86R
LA CROSSE WI   CLOUDY    40  31  70 N9        29.83R
$$

  *****  SOME NATIONAL WEATHER *****

CITY           SKY/WX    TMP DP  RH WIND       PRES   REMARKS
LA GUARDIA NY  PTSUNNY   45  40  82 NE5       29.91R
RALEIGH NC     PTSUNNY   53  51  93 CALM      29.96R
ATLANTA GA     FAIR      56  55  97 E8        29.90R
NEW ORLEANS LA FAIR      57  55  93 CALM      29.82R
OKLAHOMA CITY  MOCLDY    50  45  83 SE8       29.56S
ALBUQUERQUE NM FAIR      46  26  45 W5        29.70R
SALT LAKE CITY CLOUDY    29  27  92 E7        29.71R WCI  22
LOS ANGELES CA FAIR      50  30  46 N13       30.05R
BOISE ID       CLOUDY    31  24  75 NW18      29.83R WCI  19
SEATTLE WA     CLOUDY    36  35  96 CALM      30.22S
$$

*** WEATHER ACROSS MANITOBA...SASKATCHEWAN AND ONTARIO ***
                ***ONTARIO***

CITY           SKY/WX    TMP DP  RH WIND       PRES   REMARKS
GERALDTON      FLURRIES  23  18  80 NE3       29.77S
THUNDER BAY    CLOUDY    32  19  59 W10       29.83R WCI  24
SIOUX LOOKOUT  FLURRIES  18   9  68 NW12G17   29.87S WCI   5
TORONTO        CLOUDY    55  54  94 SW15      29.61S
BIG TROUT LK   FLURRIES   0  -6  78 NW12G17   29.87R WCI -18
PICKLE LAKE    LGT SNOW   3  -4  72 NW13G20   29.86R DRFTSNOWWCI -14
DRYDEN         FLURRIES  18  10  73 W12G18    29.90R WCI   5
KENORA         FLURRIES  16   7  67 NW12G21   29.96R WCI   3
$$
                *** MANITOBA***

CITY           SKY/WX    TMP DP  RH WIND       PRES   REMARKS
BRANDON        CLOUDY    21  14  73 E5        30.07R WCI  15
DAUPHIN        CLOUDY    21  12  68 W8        30.08R WCI  12
ISLAND LAKE    FLURRIES  -2  -8  78 NW7       30.04R WCI -16
PILOT MOUND      N/A     21  16  79 NE6         N/A  WCI  14
THE PAS        PTCLDY     1  -4  78 N6        30.12R WCI -10
THOMPSON       FLURRIES -15 -20  76 N8        30.17R WCI -32
WINNIPEG       CLOUDY    21  14  73 NW16      30.09R WCI   7
LYNN LAKE      CLOUDY    -8 -13  77 NE8       30.16R WCI -23
CHURCHILL      PTCLDY   -15 -18  84 N12       30.27R WCI -36
GILLAM         CLEAR    -20 -26  76 NW10      30.15R WCI -41
$$
                ***SASKATCHEWAN***

CITY           SKY/WX    TMP DP  RH WIND       PRES   REMARKS
ESTEVAN        SNOW      23  21  93 N9        30.06R VSB 1/2 WCI  13
KINDERSLEY     CLOUDY    23  18  80 W3        30.07S
LLOYDMINSTER   CLOUDY    12  10  92 W5        30.06F WCI   4
PRINCE ALBERT  FLURRIES  16  12  86 W9        30.04S WCI   4
REGINA         MOCLDY    23  12  63 VRB2      30.07S
YORKTON        PTCLDY    14  12  92 W8        30.06R WCI   3
N. BATTLEFORD  CLEAR     14  12  92 N5        30.10S WCI   6
LA RONGE       LGT SNOW   5   1  85 NE5       30.11R WCI  -4
SASKATOON      MOCLDY    21  16  79 NW8       30.09S WCI  12
SWIFT CURRENT  PTCLDY    16  14  93 N2        30.05R
$$
NOTE: THESE ARE AUTOMATED STATIONS WITH LIMITED QUALITY CONTROL
      "FAIR" INDICATES FEW OR NO CLOUDS BELOW 12,000 FEET WITH NO
      SIGNIFICANT WEATHER AND/OR OBSTRUCTIONS TO VISIBILITY.
      SKY/WX - SKY CONDITION AND SIGNIFICANT WEATHER.
      TMP - AIR TEMPERATURE.    DP   - DEWPOINT TEMPERATURE.
      RH  - RELATIVE HUMIDITY.  PRES - PRESSURE.
      HX  - HEAT INDEX.         WCI  - WIND CHILL INDEX.
$



USA.gov is the U.S. government's official web portal to all federal, state and local government web resources and services.